RZO786 PAJN-UEEE

Flight info

Callsign RZO786
Flight time N/A
Altitude 34000
Route SSR2 SSR DCT OTZ/N0445F360 B244 FRENK/K0822F360 N735 LORKI N991 OSKON/K0826F380 B155 AGMAT AGMAT6C
Aircraft A320/M-SDE3FGHIRWY/LB1

Departure

Time 2026-04-29 17:11
Airport Juneau International Airport (PAJN)

Arrival

Time N/A
Airport Platon Oyunsky Yakutsk International Airport (UEEE)
Time Latitude Longitude Altitude Speed Heading
2026-04-29 16:27 58.35847 -134.58438 33 ft 0 kts 46°
2026-04-29 17:03 58.35842 -134.58449 38 ft 4 kts 45°
2026-04-29 17:03 58.35822 -134.58483 32 ft 4 kts 32°
2026-04-29 17:04 58.35801 -134.58499 32 ft 4 kts 331°
2026-04-29 17:04 58.35794 -134.58490 33 ft 0 kts 285°
2026-04-29 17:06 58.35794 -134.58492 33 ft 1 kts 285°
2026-04-29 17:06 58.35802 -134.58566 33 ft 9 kts 274°
2026-04-29 17:06 58.35768 -134.58617 33 ft 6 kts 168°
2026-04-29 17:06 58.35734 -134.58526 33 ft 14 kts 107°
2026-04-29 17:07 58.35708 -134.58337 33 ft 15 kts 104°
2026-04-29 17:07 58.35689 -134.58205 33 ft 16 kts 105°
2026-04-29 17:07 58.35649 -134.57925 33 ft 17 kts 105°
2026-04-29 17:07 58.35619 -134.57705 33 ft 17 kts 104°
2026-04-29 17:08 58.35587 -134.57479 32 ft 18 kts 105°
2026-04-29 17:08 58.35553 -134.57247 33 ft 19 kts 105°
2026-04-29 17:08 58.35525 -134.57008 32 ft 19 kts 96°
2026-04-29 17:08 58.35490 -134.56765 32 ft 19 kts 108°
2026-04-29 17:09 58.35454 -134.56519 32 ft 19 kts 103°
2026-04-29 17:09 58.35419 -134.56267 32 ft 20 kts 105°
2026-04-29 17:09 58.35384 -134.56014 32 ft 20 kts 104°
2026-04-29 17:09 58.35347 -134.55756 32 ft 20 kts 105°
2026-04-29 17:10 58.35316 -134.55569 32 ft 12 kts 127°
2026-04-29 17:10 58.35230 -134.55575 29 ft 14 kts 210°
2026-04-29 17:10 58.35224 -134.55677 30 ft 0 kts 283°
2026-04-29 17:10 58.35253 -134.55895 30 ft 51 kts 284°
2026-04-29 17:11 58.35407 -134.57000 33 ft 118 kts 285°
2026-04-29 17:11 58.35665 -134.58817 41 ft 167 kts 287°
2026-04-29 17:11 58.35975 -134.61062 419 ft 184 kts 282°
2026-04-29 17:11 58.36107 -134.63610 897 ft 205 kts 270°
2026-04-29 17:12 58.36079 -134.66572 991 ft 242 kts 268°
2026-04-29 17:12 58.36027 -134.69920 1247 ft 260 kts 268°
2026-04-29 17:12 58.35994 -134.73357 2077 ft 261 kts 269°
2026-04-29 17:12 58.35987 -134.75661 2711 ft 263 kts 269°
2026-04-29 17:13 58.35992 -134.80350 3952 ft 266 kts 268°
2026-04-29 17:13 58.36009 -134.83898 4832 ft 269 kts 268°
2026-04-29 17:13 58.36032 -134.87474 5814 ft 270 kts 267°
2026-04-29 17:13 58.36055 -134.91055 6757 ft 271 kts 266°
2026-04-29 17:14 58.36075 -134.94653 7590 ft 273 kts 266°
2026-04-29 17:14 58.36092 -134.98228 8419 ft 273 kts 265°
2026-04-29 17:14 58.36107 -135.01843 9192 ft 274 kts 265°
2026-04-29 17:14 58.36120 -135.05486 9969 ft 275 kts 264°
2026-04-29 17:15 58.36131 -135.09217 10319 ft 291 kts 264°
2026-04-29 17:15 58.36133 -135.13222 10472 ft 314 kts 265°
2026-04-29 17:15 58.36140 -135.17449 10916 ft 323 kts 265°
2026-04-29 17:15 58.36155 -135.21757 11521 ft 326 kts 265°
2026-04-29 17:16 58.36173 -135.26095 12148 ft 328 kts 265°
2026-04-29 17:16 58.36189 -135.30461 12843 ft 330 kts 265°
2026-04-29 17:16 58.36201 -135.34839 13515 ft 332 kts 265°
2026-04-29 17:16 58.36207 -135.39253 14164 ft 334 kts 265°
2026-04-29 17:17 58.36210 -135.43698 14770 ft 337 kts 265°
2026-04-29 17:17 58.36214 -135.48177 15344 ft 339 kts 265°
2026-04-29 17:17 58.36224 -135.52682 15937 ft 341 kts 265°
2026-04-29 17:17 58.36239 -135.57208 16540 ft 343 kts 265°
2026-04-29 17:18 58.36252 -135.61772 17097 ft 345 kts 265°
2026-04-29 17:18 58.36261 -135.66358 17665 ft 347 kts 265°
2026-04-29 17:18 58.36265 -135.70970 18217 ft 349 kts 265°
2026-04-29 17:18 58.36365 -135.75611 18738 ft 356 kts 272°
2026-04-29 17:19 58.36945 -135.80193 19208 ft 365 kts 284°
2026-04-29 17:19 58.38080 -135.84594 19673 ft 377 kts 297°
2026-04-29 17:19 58.39764 -135.88525 20133 ft 389 kts 309°
2026-04-29 17:19 58.41735 -135.92112 20582 ft 393 kts 309°
2026-04-29 17:20 58.43713 -135.95729 21031 ft 395 kts 309°
2026-04-29 17:20 58.45703 -135.99393 21479 ft 398 kts 309°
2026-04-29 17:20 58.47698 -136.03079 21923 ft 401 kts 309°
2026-04-29 17:20 58.49713 -136.06811 22363 ft 404 kts 308°
2026-04-29 17:21 58.51733 -136.10553 22788 ft 406 kts 308°
2026-04-29 17:21 58.53773 -136.14342 23210 ft 409 kts 308°
2026-04-29 17:21 58.55817 -136.18145 23632 ft 412 kts 308°
2026-04-29 17:21 58.57879 -136.21989 23988 ft 414 kts 308°
2026-04-29 17:22 58.59948 -136.25845 24322 ft 416 kts 308°
2026-04-29 17:22 58.62023 -136.29713 24618 ft 417 kts 308°
2026-04-29 17:22 58.63410 -136.32303 24843 ft 419 kts 308°
2026-04-29 17:22 58.65498 -136.36214 25178 ft 420 kts 308°
2026-04-29 17:23 58.67592 -136.40150 25510 ft 422 kts 308°
2026-04-29 17:23 58.69697 -136.44115 25846 ft 424 kts 308°
2026-04-29 17:23 58.71804 -136.48087 26111 ft 424 kts 308°
2026-04-29 17:23 58.73916 -136.52071 26319 ft 427 kts 308°
2026-04-29 17:24 58.76043 -136.56088 26634 ft 428 kts 308°
2026-04-29 17:24 58.78172 -136.60114 26932 ft 430 kts 307°
2026-04-29 17:24 58.80314 -136.64181 27240 ft 431 kts 307°
2026-04-29 17:24 58.82423 -136.68194 27528 ft 433 kts 307°
2026-04-29 17:25 58.84584 -136.72307 27841 ft 435 kts 307°
2026-04-29 17:25 58.86745 -136.76426 28144 ft 437 kts 307°
2026-04-29 17:25 58.88916 -136.80574 28448 ft 438 kts 307°
2026-04-29 17:25 58.91091 -136.84742 28733 ft 440 kts 307°
2026-04-29 17:26 58.93242 -136.88871 29004 ft 441 kts 307°
2026-04-29 17:26 58.95424 -136.93067 29257 ft 443 kts 307°
2026-04-29 17:26 58.97621 -136.97293 29475 ft 444 kts 307°
2026-04-29 17:26 58.99810 -137.01511 29667 ft 446 kts 307°
2026-04-29 17:27 59.02012 -137.05766 29875 ft 447 kts 307°
2026-04-29 17:27 59.04218 -137.10036 30060 ft 448 kts 306°
2026-04-29 17:27 59.06423 -137.14314 30271 ft 448 kts 306°
2026-04-29 17:27 59.08634 -137.18612 30447 ft 450 kts 306°
2026-04-29 17:28 59.10846 -137.22916 30702 ft 449 kts 306°
2026-04-29 17:28 59.13056 -137.27226 30915 ft 449 kts 306°
2026-04-29 17:28 59.15260 -137.31526 31171 ft 448 kts 306°
2026-04-29 17:28 59.17456 -137.35824 31426 ft 447 kts 306°
2026-04-29 17:29 59.19646 -137.40125 31717 ft 446 kts 305°
2026-04-29 17:29 59.21826 -137.44417 31987 ft 445 kts 305°
2026-04-29 17:29 59.24010 -137.48718 32202 ft 445 kts 305°
2026-04-29 17:29 59.26182 -137.53003 32473 ft 444 kts 305°
2026-04-29 17:30 59.28319 -137.57227 32710 ft 442 kts 305°
2026-04-29 17:30 59.30484 -137.61518 32948 ft 441 kts 304°
2026-04-29 17:30 59.32638 -137.65804 33180 ft 441 kts 304°
2026-04-29 17:30 59.34797 -137.70103 33422 ft 440 kts 304°
2026-04-29 17:31 59.36944 -137.74387 33653 ft 440 kts 304°
2026-04-29 17:31 59.39089 -137.78672 33853 ft 440 kts 304°
2026-04-29 17:31 59.41230 -137.82960 34057 ft 439 kts 304°
2026-04-29 17:31 59.43366 -137.87245 34222 ft 438 kts 304°
2026-04-29 17:32 59.47594 -137.95735 34253 ft 433 kts 304°
2026-04-29 17:32 59.51759 -138.04150 34256 ft 432 kts 303°
2026-04-29 17:33 59.55946 -138.12636 34252 ft 432 kts 303°
2026-04-29 17:33 59.60138 -138.21160 34259 ft 432 kts 303°
2026-04-29 17:34 59.64315 -138.29685 34268 ft 432 kts 303°
2026-04-29 17:34 59.68500 -138.38238 34267 ft 433 kts 303°
2026-04-29 17:35 59.74748 -138.51116 34264 ft 432 kts 302°
2026-04-29 17:36 59.78905 -138.59735 34262 ft 432 kts 302°
2026-04-29 17:36 59.83044 -138.68319 34257 ft 433 kts 302°
2026-04-29 17:37 59.87209 -138.76983 34255 ft 433 kts 302°
2026-04-29 17:37 59.91371 -138.85713 34260 ft 434 kts 302°
2026-04-29 17:38 59.95535 -138.94469 34259 ft 434 kts 302°
2026-04-29 17:38 59.99692 -139.03232 34245 ft 435 kts 302°
2026-04-29 17:39 60.03827 -139.11986 34248 ft 435 kts 302°
2026-04-29 17:39 60.07986 -139.20837 34268 ft 437 kts 302°
2026-04-29 17:40 60.12151 -139.29720 34256 ft 437 kts 301°
2026-04-29 17:40 60.16301 -139.38610 34255 ft 436 kts 301°
2026-04-29 17:41 60.20451 -139.47551 34273 ft 437 kts 301°
2026-04-29 17:41 60.24614 -139.56520 34293 ft 438 kts 301°
2026-04-29 17:42 60.28757 -139.65486 34287 ft 437 kts 301°
2026-04-29 17:42 60.32887 -139.74492 34274 ft 437 kts 301°
2026-04-29 17:43 60.36977 -139.83443 34286 ft 437 kts 300°
2026-04-29 17:43 60.41103 -139.92494 34280 ft 437 kts 300°
2026-04-29 17:44 60.45213 -140.01568 34278 ft 437 kts 300°
2026-04-29 17:44 60.49312 -140.10652 34276 ft 437 kts 300°
2026-04-29 17:45 60.53422 -140.19777 34278 ft 438 kts 300°
2026-04-29 17:45 60.57521 -140.28917 34312 ft 438 kts 300°
2026-04-29 17:45 60.59573 -140.33503 34430 ft 438 kts 300°
2026-04-29 17:46 60.61628 -140.38097 34546 ft 437 kts 300°
2026-04-29 17:46 60.63652 -140.42643 34671 ft 439 kts 300°
2026-04-29 17:46 60.65704 -140.47262 34836 ft 440 kts 300°
2026-04-29 17:46 60.67757 -140.51899 34959 ft 441 kts 300°
2026-04-29 17:47 60.69811 -140.56553 35084 ft 442 kts 301°
2026-04-29 17:47 60.71873 -140.61232 35221 ft 443 kts 301°
2026-04-29 17:47 60.73934 -140.65910 35364 ft 443 kts 301°
2026-04-29 17:47 60.75996 -140.70592 35503 ft 444 kts 301°
2026-04-29 17:48 60.78061 -140.75287 35667 ft 444 kts 301°
2026-04-29 17:48 60.80124 -140.79999 35796 ft 444 kts 301°
2026-04-29 17:48 60.82189 -140.84722 35929 ft 444 kts 302°
2026-04-29 17:48 60.84247 -140.89441 36074 ft 444 kts 302°
2026-04-29 17:49 60.86304 -140.94171 36205 ft 444 kts 302°
2026-04-29 17:49 60.90407 -141.03643 36377 ft 443 kts 302°
2026-04-29 17:49 60.92451 -141.08363 36509 ft 442 kts 302°
2026-04-29 17:50 60.94496 -141.13099 36653 ft 443 kts 302°
2026-04-29 17:50 60.96516 -141.17793 36798 ft 442 kts 302°
2026-04-29 17:50 60.98551 -141.22533 36922 ft 440 kts 302°
2026-04-29 17:50 61.00582 -141.27265 37055 ft 439 kts 302°
2026-04-29 17:51 61.02611 -141.32002 37190 ft 439 kts 303°
2026-04-29 17:51 61.04634 -141.36736 37325 ft 440 kts 303°
2026-04-29 17:51 61.06653 -141.41468 37460 ft 439 kts 303°
2026-04-29 17:51 61.08667 -141.46203 37610 ft 439 kts 303°
2026-04-29 17:52 61.10687 -141.50957 37736 ft 439 kts 303°
2026-04-29 17:52 61.14698 -141.60443 38012 ft 437 kts 303°
2026-04-29 17:52 61.16697 -141.65177 38184 ft 435 kts 304°
2026-04-29 17:53 61.18686 -141.69900 38222 ft 435 kts 304°
2026-04-29 17:53 61.22678 -141.79461 38214 ft 440 kts 303°
2026-04-29 17:54 61.26701 -141.89110 38210 ft 444 kts 304°
2026-04-29 17:54 61.30734 -141.98798 38212 ft 446 kts 304°
2026-04-29 17:55 61.34680 -142.08320 38204 ft 445 kts 303°
2026-04-29 17:55 61.38725 -142.18130 38212 ft 446 kts 304°
2026-04-29 17:56 61.42779 -142.27992 38213 ft 447 kts 303°
2026-04-29 17:56 61.46803 -142.37835 38213 ft 447 kts 303°
2026-04-29 17:57 61.50842 -142.47744 38209 ft 447 kts 303°
2026-04-29 17:57 61.54874 -142.57685 38208 ft 447 kts 303°
2026-04-29 17:58 61.58901 -142.67678 38216 ft 448 kts 303°
2026-04-29 17:58 61.62922 -142.77719 38213 ft 449 kts 303°
2026-04-29 17:59 61.66919 -142.87715 38220 ft 449 kts 303°
2026-04-29 17:59 61.70939 -142.97791 38224 ft 449 kts 303°
2026-04-29 18:00 61.74956 -143.07889 38226 ft 449 kts 303°
2026-04-29 18:00 61.78968 -143.18055 38234 ft 450 kts 303°
2026-04-29 18:01 61.82968 -143.28250 38233 ft 450 kts 303°
2026-04-29 18:01 61.86929 -143.38421 38233 ft 450 kts 303°
2026-04-29 18:02 61.90913 -143.48664 38239 ft 450 kts 303°
2026-04-29 18:02 61.94905 -143.58935 38244 ft 451 kts 303°
2026-04-29 18:03 61.98884 -143.69250 38247 ft 451 kts 303°
2026-04-29 18:03 62.02854 -143.79584 38247 ft 451 kts 303°
2026-04-29 18:04 62.06824 -143.89961 38239 ft 451 kts 303°
2026-04-29 18:04 62.10784 -144.00361 38242 ft 451 kts 303°
2026-04-29 18:05 62.14710 -144.10727 38246 ft 452 kts 303°
2026-04-29 18:05 62.18015 -144.19502 38244 ft 452 kts 303°
2026-04-29 18:06 62.21966 -144.30025 38232 ft 452 kts 303°
2026-04-29 18:06 62.25887 -144.40474 38233 ft 453 kts 303°
2026-04-29 18:07 62.29829 -144.51051 38218 ft 453 kts 302°
2026-04-29 18:07 62.33750 -144.61634 38217 ft 453 kts 302°
2026-04-29 18:08 62.37667 -144.72271 38208 ft 453 kts 302°
2026-04-29 18:08 62.41417 -144.82526 38201 ft 453 kts 302°
2026-04-29 18:09 62.45318 -144.93226 38173 ft 453 kts 302°
2026-04-29 18:09 62.47265 -144.98553 37841 ft 449 kts 302°
2026-04-29 18:09 62.49196 -145.03848 37267 ft 447 kts 302°
2026-04-29 18:09 62.51118 -145.09141 36696 ft 446 kts 301°
2026-04-29 18:10 62.53031 -145.14421 36122 ft 445 kts 301°
2026-04-29 18:10 62.54917 -145.19638 35566 ft 444 kts 300°
2026-04-29 18:10 62.56817 -145.24913 35008 ft 444 kts 300°
2026-04-29 18:10 62.58720 -145.30217 34463 ft 443 kts 300°
2026-04-29 18:11 62.60605 -145.35482 34229 ft 442 kts 299°
2026-04-29 18:11 62.64376 -145.46063 34189 ft 443 kts 299°
2026-04-29 18:12 62.68153 -145.56710 34194 ft 444 kts 299°
2026-04-29 18:12 62.71893 -145.67302 34194 ft 444 kts 300°
2026-04-29 18:13 62.75656 -145.77986 34197 ft 444 kts 300°
2026-04-29 18:13 62.79420 -145.88723 34194 ft 444 kts 300°
2026-04-29 18:14 62.83160 -145.99465 34196 ft 444 kts 299°
2026-04-29 18:14 62.86882 -146.10200 34192 ft 445 kts 300°
2026-04-29 18:15 62.90627 -146.21025 34198 ft 445 kts 300°
2026-04-29 18:15 62.94346 -146.31824 34201 ft 445 kts 300°
2026-04-29 18:16 62.98092 -146.42775 34200 ft 445 kts 300°
2026-04-29 18:16 63.01788 -146.53652 34192 ft 446 kts 300°
2026-04-29 18:17 63.05497 -146.64616 34193 ft 446 kts 300°
2026-04-29 18:17 63.09210 -146.75617 34196 ft 446 kts 300°
2026-04-29 18:18 63.12920 -146.86640 34198 ft 446 kts 300°
2026-04-29 18:18 63.16610 -146.97692 34203 ft 446 kts 300°
2026-04-29 18:19 63.20266 -147.08702 34201 ft 446 kts 300°
2026-04-29 18:19 63.23937 -147.19821 34196 ft 446 kts 300°
2026-04-29 18:20 63.27597 -147.30970 34193 ft 446 kts 300°
2026-04-29 18:20 63.31247 -147.42115 34197 ft 446 kts 300°
2026-04-29 18:21 63.34875 -147.53241 34200 ft 446 kts 300°
2026-04-29 18:21 63.38519 -147.64462 34198 ft 447 kts 300°
2026-04-29 18:22 63.42152 -147.75717 34198 ft 447 kts 300°
2026-04-29 18:22 63.45782 -147.87009 34200 ft 447 kts 300°
2026-04-29 18:23 63.49400 -147.98334 34194 ft 447 kts 300°
2026-04-29 18:23 63.53003 -148.09680 34177 ft 446 kts 300°
2026-04-29 18:24 63.56598 -148.21055 34169 ft 447 kts 300°
2026-04-29 18:24 63.60192 -148.32477 34140 ft 448 kts 300°
2026-04-29 18:25 63.63776 -148.43928 34119 ft 448 kts 300°
2026-04-29 18:25 63.67344 -148.55388 34100 ft 448 kts 300°
2026-04-29 18:26 63.70916 -148.66932 34089 ft 449 kts 300°
2026-04-29 18:26 63.74489 -148.78508 34083 ft 449 kts 300°
2026-04-29 18:27 63.78053 -148.90101 34084 ft 449 kts 300°
2026-04-29 18:27 63.81607 -149.01749 34080 ft 449 kts 300°
2026-04-29 18:28 63.85122 -149.13349 34086 ft 449 kts 300°
2026-04-29 18:28 63.88664 -149.25069 34088 ft 449 kts 300°
2026-04-29 18:29 63.92199 -149.36853 34087 ft 450 kts 300°
2026-04-29 18:29 63.95719 -149.48621 34084 ft 450 kts 300°
2026-04-29 18:30 63.99205 -149.60324 34077 ft 449 kts 300°
2026-04-29 18:30 64.02700 -149.72151 34072 ft 449 kts 300°
2026-04-29 18:31 64.06187 -149.84002 34072 ft 449 kts 300°
2026-04-29 18:31 64.09664 -149.95893 34069 ft 449 kts 300°
2026-04-29 18:32 64.13139 -150.07831 34064 ft 449 kts 300°
2026-04-29 18:32 64.18302 -150.25663 34057 ft 449 kts 300°
2026-04-29 18:33 64.21743 -150.37630 34060 ft 449 kts 300°
2026-04-29 18:33 64.25177 -150.49644 34055 ft 449 kts 300°
2026-04-29 18:34 64.28017 -150.59626 34059 ft 449 kts 300°
2026-04-29 18:34 64.32002 -150.73725 34058 ft 449 kts 300°
2026-04-29 18:35 64.35399 -150.85822 34059 ft 449 kts 300°
2026-04-29 18:35 64.38765 -150.97865 34061 ft 449 kts 300°
2026-04-29 18:36 64.42146 -151.10014 34060 ft 449 kts 300°
2026-04-29 18:36 64.45519 -151.22183 34063 ft 449 kts 300°
2026-04-29 18:37 64.48878 -151.34373 34067 ft 449 kts 300°
2026-04-29 18:37 64.52232 -151.46622 34061 ft 449 kts 300°
2026-04-29 18:38 64.55569 -151.58871 34060 ft 449 kts 299°
2026-04-29 18:38 64.58887 -151.71192 34058 ft 449 kts 299°
2026-04-29 18:39 64.62212 -151.83544 34057 ft 449 kts 300°
2026-04-29 18:39 64.65508 -151.95839 34063 ft 449 kts 299°
2026-04-29 18:40 64.68807 -152.08241 34060 ft 449 kts 299°
2026-04-29 18:40 64.72103 -152.20698 34061 ft 449 kts 299°
2026-04-29 18:41 64.78662 -152.45666 34057 ft 450 kts 299°
2026-04-29 18:42 64.81932 -152.58215 34056 ft 450 kts 299°
2026-04-29 18:42 64.85185 -152.70785 34057 ft 450 kts 299°
2026-04-29 18:43 64.88409 -152.83326 34056 ft 450 kts 298°
2026-04-29 18:43 64.91648 -152.95986 34055 ft 450 kts 298°
2026-04-29 18:44 64.94868 -153.08664 34058 ft 450 kts 298°
2026-04-29 18:44 64.98080 -153.21372 34055 ft 450 kts 298°
2026-04-29 18:45 65.00745 -153.31948 34051 ft 450 kts 298°
2026-04-29 18:45 65.03943 -153.44680 34046 ft 450 kts 298°
2026-04-29 18:46 65.07124 -153.57481 34050 ft 450 kts 298°
2026-04-29 18:46 65.10292 -153.70302 34050 ft 450 kts 298°
2026-04-29 18:47 65.13451 -153.83140 34049 ft 450 kts 298°
2026-04-29 18:47 65.16601 -153.96018 34048 ft 450 kts 298°
2026-04-29 18:48 65.19710 -154.08814 34046 ft 450 kts 297°
2026-04-29 18:48 65.22840 -154.21758 34040 ft 450 kts 297°
2026-04-29 18:49 65.25954 -154.34696 34041 ft 449 kts 297°
2026-04-29 18:49 65.29046 -154.47656 34037 ft 449 kts 297°
2026-04-29 18:50 65.32125 -154.60659 34033 ft 449 kts 297°
2026-04-29 18:50 65.35201 -154.73697 34030 ft 449 kts 297°
2026-04-29 18:51 65.38267 -154.86747 34032 ft 449 kts 297°
2026-04-29 18:51 65.41306 -154.99760 34029 ft 449 kts 297°
2026-04-29 18:52 65.44353 -155.12899 34025 ft 449 kts 296°
2026-04-29 18:52 65.47376 -155.26051 34026 ft 449 kts 296°
2026-04-29 18:53 65.50390 -155.39230 34025 ft 449 kts 296°
2026-04-29 18:53 65.53402 -155.52437 34011 ft 449 kts 296°
2026-04-29 18:54 65.56395 -155.65655 34016 ft 449 kts 296°
2026-04-29 18:54 65.59379 -155.78927 34009 ft 449 kts 296°
2026-04-29 18:55 65.62327 -155.92132 34009 ft 449 kts 296°
2026-04-29 18:55 65.65277 -156.05446 34017 ft 449 kts 296°
2026-04-29 18:56 65.68224 -156.18807 34017 ft 448 kts 296°
2026-04-29 18:56 65.71167 -156.32181 34017 ft 448 kts 296°
2026-04-29 18:57 65.74083 -156.45578 34016 ft 448 kts 296°
2026-04-29 18:57 65.76992 -156.59015 34011 ft 448 kts 296°
2026-04-29 18:58 65.79874 -156.72385 34001 ft 448 kts 295°
2026-04-29 18:58 65.82753 -156.85870 33988 ft 448 kts 295°
2026-04-29 18:59 65.85625 -156.99401 33965 ft 448 kts 295°
2026-04-29 18:59 65.88484 -157.12958 33943 ft 448 kts 295°
2026-04-29 19:00 65.91337 -157.26548 33932 ft 449 kts 295°
2026-04-29 19:00 65.94182 -157.40174 33918 ft 449 kts 295°
2026-04-29 19:01 65.97013 -157.53853 33912 ft 450 kts 295°
2026-04-29 19:01 65.99824 -157.67497 33905 ft 450 kts 295°
2026-04-29 19:02 66.02178 -157.79015 33904 ft 451 kts 295°
2026-04-29 19:02 66.05436 -157.95080 33907 ft 451 kts 295°
2026-04-29 19:03 66.08230 -158.08943 33903 ft 452 kts 295°
2026-04-29 19:03 66.11015 -158.22822 33900 ft 452 kts 295°
2026-04-29 19:04 66.13796 -158.36782 33902 ft 453 kts 294°
2026-04-29 19:04 66.16564 -158.50783 33907 ft 453 kts 294°
2026-04-29 19:05 66.19309 -158.64744 33913 ft 453 kts 294°
2026-04-29 19:05 66.19428 -158.65350 33915 ft 453 kts 294°